Wind_Speed
72 73 74 75 77 81 80 77 78 81 82 82 80 80 81 84 87 88 87 87 88 89 91 94 98 102 105 108 111 115 120 125 129 136 142 140 134 133 133 134 136 137 138 134 124 118 118 118 116 114 109 103 99 94 90 85 79 75 73 71 67 63 60 59 58 56 55 55 54 53 55 57 56 54 53 52 52 53 54 54 54 53 52 50 46
73 74 75 76 79 81 78 77 79 82 82 82 80 79 82 84 86 86 86 87 88 90 93 96 100 104 107 109 112 117 122 126 131 138 142 138 134 133 133 135 137 139 138 133 122 119 121 121 119 116 111 105 101 96 92 87 82 76 72 69 66 62 59 57 57 56 54 54 54 53 52 54 56 55 52 49 48 49 51 52 52 51 50 50 48
73 74 75 77 80 80 77 77 80 82 82 81 79 80 82 84 85 86 87 88 90 92 94 97 102 105 108 111 114 119 124 127 133 141 142 136 134 134 134 137 138 139 138 130 121 120 122 122 120 117 112 107 103 99 94 89 85 80 73 69 66 62 58 55 55 54 53 52 52 52 51 51 53 54 54 50 46 45 46 48 49 47 44 45 46
73 73 75 78 80 78 76 78 81 82 82 80 78 80 82 84 85 87 88 89 92 94 96 99 103 106 109 112 116 121 125 129 136 142 139 135 134 134 135 138 139 140 137 127 119 120 122 121 120 116 111 107 105 100 96 91 87 83 77 71 67 64 60 56 53 52 52 51 50 50 49 48 49 51 53 53 51 47 45 45 47 47 42 38 40
72 73 76 79 79 76 75 79 81 83 82 79 79 81 82 84 86 87 88 91 93 95 97 101 104 107 110 113 117 122 126 130 138 141 136 133 133 134 135 138 139 140 136 125 118 119 121 119 118 114 108 105 104 101 96 92 89 85 80 74 70 66 63 58 55 53 51 49 48 49 48 47 47 48 50 53 54 54 52 47 46 49 47 41 38
71 74 78 79 77 75 76 79 82 83 81 78 80 81 81 84 86 87 89 92 95 97 99 103 105 108 110 114 119 124 127 133 140 139 134 132 132 133 136 138 139 140 134 122 118 119 120 118 116 111 105 102 101 99 96 92 88 85 81 77 72 68 65 62 58 55 53 50 47 47 48 48 47 48 49 51 53 54 56 54 51 52 54 50 43
72 76 78 77 75 74 76 80 82 83 80 79 80 80 82 85 86 88 91 94 96 99 101 104 106 108 111 115 121 125 128 136 140 136 132 132 132 133 136 138 139 139 131 120 117 120 120 118 115 109 103 100 98 96 93 91 87 84 81 78 74 69 66 64 61 58 56 53 50 47 47 48 47 47 48 49 52 53 55 57 57 57 56 55 51
75 78 78 75 74 74 77 80 83 82 80 80 81 80 82 85 87 89 92 95 98 100 102 104 107 109 111 116 122 125 130 138 139 134 131 131 132 134 137 139 140 138 129 119 117 120 120 118 115 109 102 98 96 93 90 88 85 82 79 77 74 70 66 63 62 60 58 57 54 50 48 48 48 48 48 48 50 53 55 56 56 57 58 55 53
77 77 75 74 74 75 78 80 83 82 80 81 81 80 83 86 88 91 94 97 100 101 103 105 108 110 112 117 123 126 132 140 138 132 130 131 132 136 139 140 141 138 128 118 118 121 120 118 116 111 104 99 96 92 88 86 83 79 76 73 72 70 66 63 61 61 59 58 58 55 52 50 49 48 47 46 46 48 51 54 56 58 60 60 56
76 74 73 73 74 76 78 81 83 81 80 81 81 80 83 87 89 92 95 98 100 103 104 106 109 111 113 118 124 128 135 140 135 130 130 131 133 137 140 141 142 138 128 119 119 122 121 120 118 112 106 102 98 94 89 85 82 78 73 69 67 67 65 62 59 58 58 57 57 57 55 53 50 48 47 45 45 44 46 50 53 55 58 60 59
73 72 72 73 74 76 79 82 82 81 80 82 81 80 84 88 90 93 96 99 102 104 106 108 110 111 114 119 124 129 137 139 133 129 130 131 134 138 140 142 143 138 127 120 121 123 122 121 119 114 108 104 101 97 91 86 82 78 73 68 64 62 61 60 58 56 55 55 55 56 56 54 52 50 49 47 46 45 44 45 48 51 52 53 54
71 71 72 73 75 77 80 82 81 80 81 82 80 81 85 88 91 94 97 100 103 106 108 109 111 112 115 120 124 130 138 137 130 128 129 131 135 138 140 142 142 136 126 120 123 125 123 122 120 115 109 105 103 99 94 89 84 79 74 68 63 61 59 57 56 54 53 52 52 53 55 55 54 52 51 50 49 48 47 45 45 47 48 49 49
70 71 72 74 76 78 80 81 80 80 81 82 80 81 85 89 92 95 98 102 105 108 109 110 111 113 116 121 125 132 138 133 127 127 128 131 135 137 140 142 141 134 124 120 123 125 124 122 121 115 109 105 104 101 96 93 88 82 77 70 65 61 59 57 56 54 52 51 50 50 51 54 55 54 53 52 50 49 49 48 47 46 47 47 46
70 71 73 74 76 79 80 80 79 80 81 82 81 83 86 90 93 96 99 102 106 108 109 111 112 113 117 121 125 133 135 129 125 126 128 131 135 137 139 141 139 131 121 118 123 125 124 122 120 115 109 104 103 100 96 94 90 86 81 74 68 63 59 57 56 55 54 52 51 49 49 50 53 54 54 53 51 49 48 48 48 47 46 46 44
69 71 73 75 77 79 79 79 79 81 82 83 82 84 88 91 94 97 100 104 107 108 109 110 111 114 118 121 127 134 132 125 123 125 127 131 134 137 139 140 137 128 119 117 122 124 123 122 120 115 108 103 102 99 95 92 90 87 83 78 72 66 61 58 56 55 54 52 50 48 46 46 47 49 51 51 51 49 47 46 46 46 47 47 46
69 72 73 76 78 79 78 79 81 83 84 84 84 86 89 92 94 97 100 105 108 108 109 110 112 115 119 122 129 132 127 122 122 124 127 131 134 136 139 139 135 126 117 117 121 123 122 121 119 114 107 102 101 98 94 91 88 86 83 79 76 72 67 62 58 55 54 52 50 48 45 43 43 44 46 47 48 49 49 47 46 46 48 50 50
70 72 74 76 78 78 78 80 82 84 85 85 86 88 90 92 95 97 101 105 107 108 108 110 113 116 119 124 130 129 122 120 122 124 127 131 134 137 138 138 134 125 117 118 121 122 121 120 118 114 106 101 99 96 92 89 86 84 82 79 77 74 71 68 64 60 58 55 52 49 46 44 43 42 43 44 45 46 48 48 48 47 47 48 50
71 72 74 77 77 77 79 82 83 84 85 86 87 88 90 92 95 98 102 106 107 108 109 111 114 117 121 126 129 124 119 119 121 124 128 131 134 137 138 137 133 124 118 120 122 122 121 119 117 113 106 100 98 95 91 88 85 82 80 78 76 73 71 70 68 65 62 60 58 54 50 47 45 43 43 42 43 43 44 46 48 47 46 45 47
71 72 74 76 77 77 79 81 82 83 84 86 87 89 90 92 94 98 103 106 107 108 110 112 115 118 123 127 126 120 117 119 121 124 128 131 134 137 138 137 131 123 119 121 123 124 122 119 117 113 106 100 97 95 91 88 84 81 79 76 74 73 71 69 67 65 63 61 59 58 55 51 47 45 43 41 41 41 41 42 45 47 48 46 44
71 73 75 76 76 77 79 80 82 83 85 86 87 89 90 92 95 99 103 106 107 108 110 113 116 120 124 126 122 117 116 118 121 125 128 131 135 137 137 135 129 121 119 121 124 124 122 119 117 114 106 100 97 95 92 89 85 82 79 76 73 72 70 69 66 64 62 60 58 57 56 54 50 46 45 43 41 41 41 41 42 44 47 48 46
71 73 75 75 75 77 79 81 83 85 86 86 88 89 90 92 95 100 104 105 106 108 111 114 117 122 125 124 118 114 115 117 121 125 128 132 135 136 136 134 127 119 118 121 123 123 121 118 116 113 106 100 96 94 92 89 86 83 80 76 73 71 69 68 67 65 63 61 59 57 57 56 54 50 47 45 44 43 42 41 40 41 43 46 47
70 72 73 73 75 77 80 82 84 84 85 86 88 89 90 92 96 101 103 104 106 109 112 114 118 123 124 120 115 113 114 117 121 125 128 132 135 136 135 132 124 117 117 120 123 122 119 117 115 112 105 99 95 93 91 88 86 83 80 77 74 71 69 67 67 65 64 62 60 58 57 56 56 54 51 49 47 45 43 41 39 38 39 42 44
70 71 72 73 75 77 79 82 82 82 84 86 87 88 90 92 97 101 103 104 107 110 112 115 120 123 122 117 112 111 114 117 121 125 128 131 134 135 134 129 122 116 116 119 122 121 118 115 114 111 105 99 95 92 90 87 85 83 80 78 74 72 69 67 66 65 64 63 61 59 56 55 55 55 53 51 49 46 44 41 38 35 35 38 41
70 71 72 73 75 76 79 81 80 81 85 87 86 88 90 93 98 102 103 105 109 111 113 117 122 122 119 114 110 110 113 117 121 125 128 131 133 133 131 127 119 115 115 119 120 119 116 114 113 111 105 99 95 92 89 86 84 82 80 77 75 72 69 67 66 65 64 63 62 60 58 55 53 53 53 51 49 47 45 42 39 35 33 34 37
71 72 73 73 74 77 80 80 80 83 86 85 86 89 92 94 99 103 104 106 109 111 114 119 122 121 116 110 108 110 113 117 121 125 128 131 132 131 129 124 117 114 115 118 120 118 115 114 113 111 105 99 95 93 90 87 84 82 80 77 75 73 70 68 66 65 63 63 62 61 60 57 54 52 51 51 49 48 47 45 43 40 36 34 35
71 72 72 72 74 78 80 80 81 84 85 85 87 90 92 95 101 104 104 107 109 111 115 120 122 118 112 106 106 110 113 117 121 125 127 130 131 129 127 121 115 114 116 119 120 118 115 114 114 111 106 100 95 93 91 87 85 83 80 78 76 73 71 69 67 65 64 62 61 60 59 59 57 54 51 50 49 48 47 47 46 45 42 39 37
69 70 71 73 75 78 79 80 82 84 84 85 89 91 92 97 102 104 105 107 109 112 117 121 120 115 107 104 106 110 114 118 122 125 127 130 129 128 124 118 114 115 117 120 121 118 116 115 114 112 107 100 96 94 91 88 86 83 81 79 77 74 72 71 68 66 64 63 62 60 59 59 59 57 54 52 50 49 47 46 45 45 45 42 40
68 70 71 73 75 78 80 81 83 84 85 87 89 91 93 98 102 104 105 107 109 113 119 121 117 110 104 103 106 110 114 118 121 124 127 129 128 126 121 115 113 115 118 120 120 118 116 115 115 112 107 101 97 95 92 89 88 85 81 79 77 75 74 72 71 69 66 64 63 62 60 59 59 59 58 55 52 50 48 46 45 44 44 43 41
70 71 72 73 75 78 81 82 83 84 85 88 90 92 95 99 103 105 105 107 110 115 119 119 113 105 101 103 107 110 114 118 121 124 127 128 127 123 117 112 112 115 117 119 118 115 115 115 114 111 106 99 95 93 91 89 88 86 83 80 77 76 74 72 71 70 68 66 64 62 61 59 58 57 58 57 54 51 49 47 45 44 43 43 41
71 72 73 74 76 79 81 83 84 84 86 88 90 92 96 102 105 105 105 107 111 117 120 116 108 100 99 103 108 111 115 119 121 125 128 128 126 121 114 109 111 114 117 118 116 113 113 114 113 110 104 97 93 91 89 87 86 85 82 80 77 75 74 72 70 69 67 66 64 62 60 58 56 56 56 56 56 54 51 48 45 44 42 42 42
71 72 72 74 77 79 81 82 83 84 86 88 90 94 99 103 104 104 105 108 113 118 118 111 102 97 99 103 107 111 116 119 122 126 128 127 125 119 112 109 111 114 117 117 114 112 112 112 111 109 102 95 92 90 88 86 85 83 81 79 77 75 73 71 69 68 66 64 63 61 59 58 56 54 53 53 54 54 53 50 47 44 42 41 41
70 70 72 74 77 79 81 82 82 84 86 88 91 95 99 102 102 103 106 110 115 118 114 105 97 96 100 104 107 111 115 119 122 126 127 126 122 115 110 109 111 114 116 115 112 111 112 111 110 107 100 94 91 90 88 86 85 83 81 79 77 75 72 70 68 66 64 62 61 59 58 57 55 54 52 52 52 52 53 52 49 46 43 41 40
68 69 71 74 77 79 80 81 82 84 86 88 92 96 99 100 101 103 106 111 116 115 108 98 95 97 101 104 108 112 115 119 122 125 126 124 118 112 108 109 112 114 115 113 111 111 111 110 109 105 98 93 91 89 88 87 85 83 81 79 77 75 72 70 67 65 63 61 59 58 56 55 54 53 52 51 51 50 51 52 51 48 45 42 40
67 69 72 75 77 79 80 81 82 85 87 89 93 96 98 99 101 104 108 113 115 110 101 95 94 98 101 105 109 112 115 119 122 124 124 120 113 108 107 110 113 114 113 111 110 110 110 109 107 103 96 92 90 89 88 87 85 83 81 79 77 75 72 70 67 65 62 61 59 57 56 54 53 52 52 51 50 50 49 50 50 49 46 43 40
67 70 72 75 78 79 80 82 84 86 88 91 94 96 97 99 102 105 110 113 111 103 96 93 95 99 103 106 109 112 116 119 122 123 122 115 107 104 107 110 113 113 111 109 109 110 109 108 106 100 94 91 90 89 88 87 85 83 81 79 77 75 72 69 67 64 62 60 59 57 55 54 52 51 50 49 49 48 48 48 48 48 47 44 42
67 70 73 75 77 78 80 82 84 87 90 93 95 96 98 100 103 107 111 111 105 97 93 93 96 100 104 108 111 113 116 120 122 122 117 108 102 102 106 109 110 110 108 108 109 110 109 107 104 98 92 90 90 88 88 87 85 83 81 78 76 73 71 68 66 64 61 59 58 56 55 53 52 51 50 49 48 47 46 46 46 46 46 45 42
67 70 73 75 76 78 80 83 85 88 91 93 94 96 99 101 105 109 110 106 98 93 91 94 97 101 105 109 112 115 117 120 122 119 111 102 99 101 105 107 107 106 105 106 109 109 109 107 102 96 91 90 89 88 87 86 84 82 81 78 75 73 70 67 65 62 60 58 56 55 54 52 51 50 50 49 48 47 46 45 44 44 44 44 42
69 71 73 75 76 79 81 84 86 89 92 92 94 96 99 102 106 109 106 100 94 91 91 94 98 102 106 109 112 115 118 121 120 114 104 98 98 102 105 106 105 103 104 106 108 108 108 106 100 93 90 89 88 87 86 85 84 82 80 78 75 72 69 67 64 61 59 57 55 53 53 52 51 50 49 49 48 47 45 44 43 43 43 43 42
71 73 75 76 78 80 82 84 87 90 90 91 94 98 101 104 107 106 101 95 91 90 92 96 100 104 107 111 113 116 119 120 116 107 99 98 101 104 106 105 103 102 104 106 107 107 106 103 97 91 88 88 87 86 86 84 83 81 79 76 74 72 69 66 64 61 58 56 54 53 52 52 51 50 49 48 47 47 45 44 42 42 42 42 42
73 74 76 77 79 81 83 86 89 90 90 92 95 99 102 105 105 102 96 91 90 91 94 97 101 105 109 111 114 117 120 116 108 99 97 99 103 105 105 103 101 102 104 105 106 106 105 100 94 89 88 87 87 86 85 84 82 80 78 76 73 71 69 66 62 59 57 55 53 52 52 52 51 51 50 48 47 46 45 44 42 41 40 40 40
74 76 78 79 81 83 85 87 89 90 91 93 97 101 104 105 102 97 92 90 90 93 96 99 103 106 109 112 115 118 115 106 98 94 97 101 103 104 103 100 100 101 103 104 104 105 102 97 91 87 87 86 86 85 84 83 81 79 77 75 73 71 68 65 62 59 56 54 52 52 51 52 52 51 51 50 48 47 45 44 42 40 39 38 39
75 78 79 81 82 84 86 88 90 90 91 94 98 102 104 102 97 92 89 90 92 94 98 101 105 107 110 113 115 112 103 94 91 93 97 100 102 101 99 98 99 101 102 103 103 103 99 94 89 86 86 86 85 84 83 81 80 78 76 74 73 71 68 65 62 59 56 53 52 51 51 52 52 52 51 50 49 47 46 44 42 40 38 38 37
77 79 81 83 85 85 86 88 90 91 92 96 100 103 102 98 92 89 89 91 94 97 100 103 106 109 111 112 108 99 90 87 90 94 97 99 99 97 96 97 99 101 102 102 102 100 96 90 87 86 86 85 84 83 82 80 78 76 75 73 72 70 68 65 61 58 56 54 52 52 52 52 53 53 52 51 50 48 46 44 42 39 37 37 36
79 80 82 84 85 85 86 88 90 91 94 99 101 100 97 92 88 87 89 93 96 99 102 106 109 110 108 101 92 85 84 87 91 94 96 96 95 94 95 97 99 101 101 102 101 98 93 87 85 86 85 84 84 83 81 79 77 75 73 72 71 69 67 64 61 58 55 54 53 53 53 53 54 53 53 52 51 50 48 46 43 40 37 36 35
79 81 83 85 84 84 87 90 91 93 97 100 99 96 91 87 85 87 91 94 98 101 105 107 106 101 93 85 81 81 85 89 92 94 94 93 92 93 95 97 99 100 101 101 99 95 89 85 85 85 85 84 84 82 81 79 77 75 73 72 70 68 66 63 60 58 55 53 53 53 54 54 54 54 53 53 52 51 50 48 46 42 39 36 35
80 83 84 84 83 86 89 91 92 95 98 98 95 90 86 83 84 88 92 95 98 101 101 97 91 84 80 79 80 84 87 90 92 93 92 91 91 93 95 97 99 100 100 99 97 92 87 84 84 84 84 84 83 82 81 79 77 74 73 72 70 68 66 63 60 57 55 53 53 54 54 55 55 55 54 53 52 51 50 49 47 45 42 38 36
82 83 83 83 85 88 89 91 93 97 98 95 90 84 81 81 85 88 91 93 94 93 89 84 80 78 78 80 83 86 89 91 91 90 89 89 91 92 94 97 98 99 100 98 94 89 85 84 84 83 83 83 82 81 80 78 76 74 73 72 70 68 66 64 61 58 55 54 54 54 55 55 55 55 55 53 51 50 49 48 47 46 43 40 37
82 82 82 84 86 88 89 92 96 96 94 88 83 78 78 81 84 86 86 88 87 85 82 80 79 79 80 82 85 88 89 90 89 88 88 89 90 92 94 96 98 98 98 96 91 86 84 83 83 83 83 82 81 80 79 77 76 74 73 72 70 68 66 64 61 58 56 55 55 55 55 55 55 55 54 52 50 49 48 48 47 46 44 41 37
81 82 84 86 86 88 91 94 95 92 87 81 76 75 78 80 81 81 82 83 83 82 81 80 79 80 82 84 86 88 88 88 87 87 87 88 90 92 94 96 97 97 97 93 88 84 83 83 83 83 82 81 81 80 78 76 75 74 73 72 71 68 66 63 60 57 56 55 55 55 56 56 55 53 52 50 48 47 47 46 46 44 42 39 35
81 83 84 85 86 89 92 92 89 84 79 74 72 75 77 78 77 77 79 81 81 80 80 80 80 82 84 85 86 87 87 86 86 86 86 88 90 92 94 95 96 96 94 90 86 83 82 83 83 82 82 81 80 79 77 75 74 73 73 72 70 68 65 63 60 57 55 55 55 55 55 55 53 51 49 47 46 45 45 45 44 42 39 36 33
81 82 83 84 87 90 90 87 82 76 71 70 72 75 76 74 74 75 77 78 79 79 79 80 81 83 84 86 86 86 86 85 84 85 86 87 89 91 93 94 95 95 92 88 84 82 82 82 82 82 81 80 79 78 76 74 74 73 73 71 69 67 65 62 60 57 56 55 54 54 54 53 52 49 47 45 44 44 43 43 41 39 36 33 30
Wind_Direction
313 310 309 310 313 316 317 317 316 317 319 319 318 317 316 317 318 319 319 320 322 323 324 326 328 328 329 330 330 330 331 332 334 335 335 335 338 339 340 340 340 340 340 339 338 338 339 338 338 337 337 337 336 336 336 335 335 334 332 330 329 328 326 324 323 322 321 318 316 315 313 312 313 314 316 318 320 321 320 318 316 314 310 304 298
311 308 308 309 312 315 316 316 316 318 319 318 317 316 316 317 318 319 320 322 323 323 325 327 327 328 329 330 330 331 331 332 334 334 335 336 339 340 340 340 340 341 341 340 339 340 341 340 339 339 338 338 338 338 337 337 336 336 334 332 330 329 328 327 325 324 323 321 318 316 314 313 313 314 316 319 323 325 324 322 321 320 319 313 307
310 308 307 309 312 315 316 316 317 318 319 318 317 316 316 318 319 320 321 323 323 324 325 327 327 328 329 330 330 331 331 332 334 334 335 338 340 340 340 340 340 341 341 341 341 342 342 341 341 341 340 339 339 339 339 338 337 336 335 334 332 331 330 329 327 325 324 322 319 317 315 314 314 315 316 318 321 325 325 324 323 322 322 319 313
308 307 307 309 313 315 316 316 318 319 318 317 316 316 317 318 320 321 322 323 324 324 326 326 327 328 330 330 330 331 331 333 334 334 336 339 340 340 340 340 340 341 342 341 342 343 343 343 342 342 341 341 340 340 340 339 338 337 336 336 334 333 332 331 329 327 325 323 320 317 315 315 316 318 320 321 323 324 324 325 326 325 322 320 317
307 306 307 310 313 315 316 317 318 319 318 316 315 316 318 319 321 322 323 324 324 324 326 326 327 329 330 330 330 331 332 334 334 335 337 340 340 340 340 340 341 342 342 342 343 344 344 343 344 343 342 342 341 341 341 340 339 338 337 337 336 335 334 333 331 329 327 325 322 320 318 318 319 320 323 326 328 329 327 326 327 329 329 325 323
306 307 309 311 314 315 316 317 318 319 317 316 315 317 319 321 322 323 324 324 324 325 325 326 327 329 329 330 331 331 333 334 334 335 338 340 339 339 339 340 341 342 342 342 343 344 344 344 344 344 343 342 342 342 341 341 340 339 338 337 337 336 335 334 333 331 329 327 326 325 323 322 323 324 326 328 329 331 333 331 329 331 334 333 330
306 308 310 312 314 316 316 317 319 318 316 315 316 317 320 322 323 324 324 324 324 325 325 326 328 329 329 330 331 332 333 334 334 337 339 339 339 339 339 340 341 342 343 343 344 344 344 345 345 344 343 343 343 343 342 341 341 340 338 337 337 337 337 335 334 333 331 330 329 329 327 325 326 327 328 328 329 331 336 338 335 332 334 337 335
306 308 310 312 314 316 316 317 318 318 316 315 316 318 320 323 324 324 324 324 324 325 325 327 328 328 328 329 331 332 333 333 335 338 339 339 339 339 340 340 342 343 343 343 344 345 345 345 345 344 344 344 344 345 344 342 341 340 339 338 337 337 337 337 335 334 334 332 331 331 331 330 329 329 330 330 331 333 335 337 337 334 334 336 337
307 308 310 313 315 316 316 317 318 317 315 315 316 318 321 323 325 325 324 325 325 325 326 327 327 327 327 329 330 332 333 334 336 338 339 338 339 339 340 341 342 343 343 343 345 345 345 345 345 345 344 344 345 345 345 344 342 341 340 339 337 337 337 338 337 336 335 334 333 333 333 333 331 331 330 330 331 333 333 335 337 338 336 335 336
308 309 311 314 316 316 316 317 318 317 316 316 316 318 321 323 324 325 325 325 325 326 326 327 326 326 327 328 330 331 332 334 337 338 338 338 339 339 340 341 342 343 343 344 345 346 346 346 346 345 344 345 345 346 346 345 343 342 341 340 338 338 337 338 338 337 336 335 334 334 333 333 332 331 330 331 331 331 333 336 338 339 338 336 337
308 309 312 315 316 316 316 317 318 317 316 317 317 318 321 323 324 325 325 325 326 326 326 326 326 326 326 328 329 330 332 335 337 338 338 338 339 339 340 341 342 343 343 344 345 346 346 346 346 346 345 345 345 346 346 346 344 343 342 341 340 338 338 338 339 338 337 337 336 335 333 333 333 333 332 332 332 332 334 336 338 338 338 337 336
308 310 313 315 315 316 316 317 317 317 317 317 317 318 320 322 324 324 325 326 326 326 326 326 325 326 326 327 328 330 333 335 337 337 337 338 339 339 340 341 342 343 343 344 345 346 347 347 347 346 345 345 345 346 346 346 345 344 343 343 341 339 338 339 339 340 340 339 338 336 335 334 334 335 334 334 333 333 334 335 336 337 337 337 336
309 311 313 314 315 316 317 317 318 318 318 318 318 318 320 322 323 324 325 326 326 326 326 325 325 326 326 327 328 330 333 336 337 337 337 338 338 339 340 341 342 343 343 344 345 346 347 347 347 346 346 345 346 346 346 345 345 344 344 344 343 342 340 340 340 341 341 342 341 339 338 336 335 335 335 335 335 334 334 333 333 335 336 337 336
310 312 313 314 315 316 317 317 318 318 319 318 318 318 320 321 322 323 325 326 326 326 326 325 325 326 326 327 328 331 334 336 336 336 337 337 338 339 340 341 342 343 343 344 346 346 347 347 347 347 346 345 346 346 345 345 345 344 344 344 344 344 343 342 342 343 343 343 344 342 340 338 337 336 336 335 334 333 332 331 331 332 334 336 337
311 312 313 314 315 316 317 318 319 319 319 318 318 318 320 321 321 323 324 325 326 326 326 326 326 326 327 327 329 332 335 336 336 336 336 337 338 339 340 341 342 342 343 344 346 346 347 347 347 347 346 345 346 345 345 345 345 344 344 343 344 344 345 344 344 344 344 344 344 344 343 340 338 336 335 335 333 331 331 330 330 331 334 338 340
311 312 313 314 315 316 317 317 318 318 318 318 318 319 319 320 321 322 324 325 326 326 326 326 326 327 327 327 330 333 335 335 335 335 336 337 338 339 340 341 342 342 343 344 346 347 347 347 347 347 346 345 346 345 345 345 345 344 344 344 344 344 345 346 346 345 344 344 344 345 344 342 339 336 335 335 335 333 331 331 332 333 337 341 343
311 312 313 314 315 316 316 316 316 316 317 317 317 318 318 319 320 322 324 326 326 326 326 326 327 327 327 328 331 334 335 335 335 335 336 337 338 339 340 341 342 342 343 344 346 347 347 347 347 347 346 345 345 345 345 345 346 345 345 345 344 345 346 346 347 346 346 345 344 345 344 343 341 339 338 338 338 336 333 332 333 335 339 343 344
311 312 312 313 314 315 315 315 315 315 316 316 316 317 317 318 320 322 324 325 325 325 326 326 327 327 327 329 332 334 334 334 334 335 336 337 338 339 340 341 342 342 343 344 345 346 347 347 347 346 346 345 345 345 345 345 346 346 346 346 346 346 346 347 347 348 348 346 345 344 344 344 343 342 341 340 340 339 337 334 333 334 337 342 345
310 311 311 312 314 314 314 314 315 316 316 316 316 316 317 319 320 322 324 325 325 325 326 326 326 327 328 331 333 334 334 334 334 335 336 337 338 339 341 342 342 342 342 344 345 346 346 347 346 346 345 345 345 345 345 345 346 347 347 347 347 346 346 347 347 348 348 348 346 344 344 344 345 343 342 342 341 342 341 338 335 334 335 339 345
310 310 311 312 312 312 313 314 315 315 315 316 316 316 317 319 320 322 323 324 324 325 326 326 326 328 329 332 334 333 333 333 334 335 336 337 338 340 341 342 342 342 342 343 344 345 346 346 346 346 345 345 345 345 345 345 346 347 347 348 348 347 346 346 346 347 347 348 348 346 344 344 344 344 343 343 343 344 345 343 339 336 335 336 341
309 309 310 310 311 312 313 314 315 315 315 315 315 316 317 319 320 322 323 323 324 325 326 326 327 328 331 333 333 332 332 333 334 335 336 337 338 340 341 341 341 341 342 343 344 345 345 345 345 345 345 345 345 345 345 345 346 347 347 348 348 348 347 346 346 346 347 347 348 348 347 345 345 345 345 345 345 346 347 346 343 338 335 336 338
308 308 309 310 311 312 313 314 314 314 315 315 315 316 317 319 320 322 323 323 324 325 326 327 328 329 331 333 333 332 332 333 334 335 336 337 339 340 341 341 341 341 342 342 343 344 345 344 344 345 344 344 345 345 345 345 346 346 347 347 347 347 347 347 346 346 346 347 347 348 349 348 347 346 347 347 347 346 347 348 346 340 336 335 336
309 309 309 310 311 312 313 314 314 314 315 315 315 316 317 319 321 322 323 323 324 325 326 327 328 330 331 332 332 331 332 333 334 335 336 337 339 340 340 340 340 340 341 342 343 343 344 344 344 344 344 344 345 345 345 345 346 346 346 346 346 347 347 347 346 346 346 346 347 347 349 350 349 348 348 348 347 346 346 347 347 344 339 335 336
308 308 309 310 311 312 314 314 315 315 314 314 315 316 317 319 320 322 323 323 324 325 326 328 329 330 331 331 331 331 332 333 334 335 336 338 339 339 340 339 339 340 341 341 342 343 343 343 343 344 344 344 344 345 346 346 346 346 346 346 346 346 346 346 346 346 345 345 346 346 347 349 350 350 348 348 347 346 345 345 346 346 343 339 338
307 307 308 309 310 313 314 315 315 314 314 314 315 317 317 318 320 322 323 323 324 325 327 328 329 330 331 331 330 331 332 333 334 335 336 338 339 339 339 338 338 339 340 341 341 342 343 343 343 344 344 344 344 345 345 345 345 345 345 345 345 345 346 346 346 346 345 345 345 346 346 347 349 350 350 348 348 347 346 345 346 347 346 344 341
306 306 307 308 310 312 314 314 314 314 314 314 315 317 317 318 320 322 323 323 324 326 327 327 328 329 330 330 330 331 332 333 334 335 336 337 338 339 338 338 338 338 340 340 341 342 342 343 344 344 344 344 344 345 345 345 345 345 345 345 345 345 345 346 346 346 345 345 345 345 345 345 346 347 349 349 348 349 349 348 347 347 348 347 344
306 306 307 307 309 312 313 314 314 313 313 314 315 316 316 318 320 322 322 323 324 326 327 327 328 329 330 329 330 331 332 333 334 335 336 337 338 338 338 337 337 338 339 340 341 342 342 343 344 344 344 344 344 344 344 344 344 344 344 344 344 345 345 345 345 345 345 345 345 345 345 345 345 345 347 349 349 349 349 349 348 347 347 348 346
306 306 307 308 310 311 313 313 313 312 313 314 315 315 316 318 320 322 322 323 325 326 326 326 328 329 329 329 330 331 332 333 334 335 336 337 338 338 337 337 337 338 339 340 341 341 342 343 343 344 344 344 344 344 344 344 343 344 344 344 344 345 345 345 345 345 345 346 346 346 346 346 345 344 344 346 348 348 349 349 349 348 346 347 348
305 306 306 308 309 311 311 312 312 312 313 313 314 314 315 318 320 322 322 323 325 325 325 326 327 328 329 330 330 331 331 332 334 335 336 337 338 338 337 336 336 337 338 339 340 341 342 342 343 344 344 344 343 344 343 343 343 343 343 344 344 344 344 345 344 344 345 345 346 346 346 346 345 344 343 344 345 347 348 349 348 348 347 346 347
303 304 306 307 308 309 311 311 311 311 312 313 313 314 315 318 320 321 322 324 325 325 325 326 327 328 329 330 330 330 331 332 334 335 336 337 337 337 336 336 336 337 338 339 340 341 342 342 343 343 343 343 343 343 342 342 342 342 343 343 344 344 344 344 344 344 344 345 345 345 345 346 346 345 344 343 343 345 347 348 348 348 347 346 346
302 304 305 306 307 309 310 310 310 311 312 312 313 314 316 318 320 321 322 324 324 324 324 326 327 328 329 330 330 330 331 332 334 335 336 337 337 336 335 335 336 337 338 339 340 341 341 342 342 343 342 342 342 342 341 341 341 342 342 343 343 344 344 344 344 344 344 344 345 345 345 346 346 346 346 345 344 344 344 346 348 348 348 346 345
303 304 304 305 307 309 309 309 310 311 312 312 313 315 317 318 320 321 322 324 324 323 324 325 327 328 329 329 329 330 331 332 334 335 336 336 335 335 335 335 336 337 337 338 339 340 341 341 342 342 342 341 341 341 341 341 341 342 342 343 343 343 344 344 344 344 344 344 345 345 345 346 346 347 347 347 346 345 344 344 346 347 348 347 345
303 303 304 304 306 308 308 308 310 311 311 312 314 316 317 319 320 321 323 324 323 323 324 326 327 329 329 329 329 330 331 333 334 334 335 335 335 334 334 335 336 337 337 338 339 340 341 341 341 341 341 340 340 340 340 341 341 342 342 342 343 343 343 343 344 344 344 344 344 345 345 346 346 347 347 348 348 347 345 344 344 346 347 347 346
303 302 302 304 306 307 307 308 309 310 311 313 315 317 318 319 320 322 324 323 323 323 324 326 328 328 328 328 329 330 331 332 333 334 335 335 334 333 334 335 335 336 337 337 338 339 340 341 341 341 340 340 340 340 340 340 341 341 342 342 342 343 343 343 344 344 344 344 344 345 346 346 347 347 348 348 348 348 347 345 344 344 346 347 347
302 301 302 305 306 306 306 307 308 309 310 313 316 317 318 319 321 323 323 323 322 323 325 327 328 328 327 328 329 330 331 332 333 334 334 334 333 333 334 334 335 336 336 337 337 338 340 340 341 340 340 340 339 339 340 340 341 341 342 342 342 342 342 343 343 344 345 345 344 344 345 346 347 347 348 348 348 348 347 346 345 344 344 345 346
300 301 304 306 306 306 306 307 308 309 311 314 316 316 318 320 322 323 323 322 322 324 326 328 327 327 327 328 329 330 331 332 333 333 333 333 332 333 333 334 335 335 336 336 337 338 339 340 341 340 340 339 339 339 339 340 340 341 341 342 342 342 342 343 343 344 345 345 344 344 345 346 347 347 347 347 347 347 347 346 345 344 343 344 345
300 302 305 306 306 306 307 307 308 309 312 314 315 316 318 321 322 323 323 322 323 325 327 328 327 326 327 327 328 330 330 331 332 333 332 331 331 332 333 333 334 335 335 336 337 338 339 340 340 340 339 339 339 339 339 340 340 341 341 341 341 341 342 343 343 344 345 345 344 344 345 345 346 346 346 345 345 345 345 345 345 343 342 342 343
301 303 306 308 308 307 307 307 308 310 313 315 316 317 319 322 323 323 322 322 324 327 328 327 326 326 326 327 328 329 330 330 331 331 331 331 331 332 332 333 334 335 336 336 337 338 339 340 340 339 339 338 338 339 339 339 340 340 340 340 340 341 342 343 343 344 345 345 344 344 344 344 344 344 344 344 343 343 344 344 344 343 342 341 341
301 304 307 307 307 306 307 307 309 311 314 315 316 318 321 322 323 322 322 323 325 328 328 326 325 325 326 327 328 329 329 330 330 330 330 331 331 332 333 334 335 335 336 336 337 338 339 339 339 339 338 338 338 338 339 339 340 340 340 340 340 341 342 343 343 344 344 344 344 344 344 343 343 342 342 342 342 342 342 343 343 342 341 340 339
301 304 305 306 306 306 307 308 310 312 314 316 317 320 321 322 322 322 322 324 327 328 327 326 325 326 326 327 328 328 329 329 330 330 330 331 331 332 333 334 335 335 336 336 337 338 339 339 339 338 338 338 338 338 339 339 340 340 340 339 340 341 342 343 343 343 344 344 344 343 343 342 341 340 340 340 340 340 340 340 341 341 340 338 337
301 303 304 304 305 306 307 308 310 313 315 317 318 320 322 322 322 322 323 326 328 328 326 325 325 326 326 327 327 327 328 329 329 330 330 331 331 332 333 334 335 335 335 336 337 338 338 338 338 338 337 337 338 338 339 339 340 340 339 339 340 341 341 342 343 343 343 343 343 342 342 341 339 339 339 338 339 338 338 338 339 340 339 338 336
300 301 302 303 305 306 307 308 310 314 316 318 319 321 322 322 321 322 325 328 328 327 326 325 325 326 326 326 326 327 328 328 329 329 330 330 331 332 333 333 334 334 335 336 337 338 338 338 337 337 337 337 338 338 339 339 340 340 339 339 340 340 341 342 342 343 342 342 342 342 341 340 338 337 337 336 336 336 336 337 338 339 339 338 335
299 300 301 302 304 305 306 308 311 315 317 319 320 321 321 321 321 324 327 328 327 326 325 325 325 325 325 325 326 327 328 328 329 329 330 330 331 332 332 333 334 334 335 336 337 338 338 338 337 337 337 337 338 338 339 339 340 340 339 339 340 340 341 341 342 342 342 341 341 341 340 339 337 336 335 335 335 335 335 336 337 338 339 338 336
298 299 300 301 303 305 306 309 313 316 318 319 320 320 320 320 322 326 328 328 327 326 325 325 324 324 324 325 327 328 328 328 329 329 330 331 331 332 333 333 334 334 335 336 337 338 338 338 337 337 337 337 338 338 339 339 340 340 340 339 339 340 340 341 341 342 342 341 341 340 339 338 336 334 334 334 334 335 335 336 337 339 340 339 337
297 298 299 300 303 305 307 310 314 316 317 319 319 319 319 321 325 328 328 327 327 326 325 324 324 325 326 328 329 329 328 329 329 330 331 331 332 332 333 333 334 335 336 337 337 338 338 337 337 337 337 337 338 339 339 340 340 340 340 340 340 340 340 341 341 342 342 341 341 340 339 337 335 334 334 334 334 334 334 335 337 339 341 341 339
296 297 299 301 303 306 309 312 315 316 317 318 318 318 320 324 327 328 328 327 327 326 325 325 326 328 329 330 329 329 329 329 330 331 332 332 332 333 333 334 334 335 336 337 338 338 338 337 337 337 337 338 338 339 339 340 340 340 340 340 340 340 341 341 342 342 342 341 341 340 338 336 335 335 334 334 333 333 333 334 336 338 341 342 340
295 297 299 301 304 307 311 313 315 316 316 317 317 319 323 326 328 328 328 328 327 327 327 328 330 331 331 330 329 329 329 330 331 332 332 333 333 333 334 334 335 335 336 337 338 338 338 337 337 337 338 339 339 339 340 340 340 340 340 340 341 341 341 342 342 342 342 342 341 340 338 337 336 335 334 333 332 332 332 333 334 337 339 340 339
295 297 300 303 306 309 312 313 314 315 316 316 318 321 325 327 328 328 328 328 328 328 329 330 331 331 330 329 329 329 330 331 332 333 333 333 333 334 334 334 335 336 336 337 338 338 338 337 337 338 339 339 339 340 340 340 340 340 340 341 341 341 341 342 342 342 342 341 341 340 339 338 337 335 333 332 332 331 331 332 334 336 337 338 337
296 298 301 304 308 311 312 312 313 314 315 316 320 324 327 327 328 328 329 329 329 329 330 331 331 331 330 329 330 331 331 332 333 333 333 334 334 334 334 335 335 336 337 338 338 338 338 338 338 338 339 340 340 340 340 340 341 341 341 341 341 341 341 341 342 342 341 341 340 340 339 338 337 335 333 332 331 331 330 331 333 335 336 336 335
297 299 302 306 309 311 311 312 313 314 315 319 323 326 327 327 327 328 329 329 329 329 330 331 331 330 330 330 331 332 332 333 333 333 334 334 334 334 335 335 336 336 337 338 338 338 338 338 339 339 340 340 340 340 340 341 341 341 341 341 341 340 341 341 341 341 341 341 341 340 339 337 336 336 334 332 331 331 331 333 335 336 336 335 333
298 301 305 308 309 310 310 312 313 314 317 322 325 326 326 326 326 328 329 329 329 329 330 330 330 330 331 331 332 332 333 333 334 334 334 334 334 335 335 335 336 337 338 338 338 338 338 339 339 340 341 341 341 340 341 341 342 342 341 341 340 340 341 341 341 341 341 342 341 341 339 338 337 337 335 333 332 332 334 336 338 338 336 335 333
Height
10543 10538 10534 10529 10525 10521 10516 10511 10505 10499 10493 10486 10480 10473 10467 10460 10452 10445 10438 10429 10421 10412 10404 10396 10386 10377 10367 10356 10346 10336 10325 10313 10300 10287 10273 10258 10241 10225 10210 10196 10182 10167 10152 10136 10121 10106 10091 10077 10064 10050 10039 10028 10017 10007 9997 9989 9981 9972 9962 9952 9945 9938 9930 9922 9915 9910 9904 9897 9892 9888 9879 9871 9866 9864 9860 9854 9846 9838 9831 9825 9819 9813 9808 9806 9805
10537 10532 10528 10523 10519 10514 10509 10504 10498 10492 10486 10480 10473 10466 10460 10453 10446 10438 10430 10422 10414 10405 10396 10388 10378 10369 10359 10348 10338 10328 10316 10304 10291 10277 10264 10247 10230 10215 10201 10188 10174 10159 10143 10127 10111 10096 10080 10065 10052 10038 10026 10015 10005 9995 9985 9976 9969 9963 9955 9946 9938 9931 9924 9917 9909 9902 9897 9890 9883 9878 9874 9867 9859 9854 9852 9849 9843 9835 9826 9819 9813 9808 9802 9796 9793
10531 10526 10522 10517 10513 10508 10503 10497 10492 10485 10479 10473 10466 10460 10453 10446 10439 10432 10424 10415 10406 10398 10389 10380 10371 10361 10351 10340 10330 10319 10307 10295 10281 10268 10253 10237 10220 10206 10193 10180 10166 10152 10137 10121 10104 10089 10074 10059 10043 10029 10016 10004 9994 9985 9975 9966 9958 9951 9946 9939 9931 9924 9918 9911 9904 9896 9891 9886 9879 9872 9867 9862 9854 9846 9841 9838 9836 9832 9825 9816 9808 9804 9800 9793 9786
10525 10520 10516 10511 10507 10502 10497 10491 10485 10479 10473 10466 10460 10453 10446 10440 10433 10425 10416 10408 10399 10391 10382 10372 10363 10354 10343 10332 10321 10310 10299 10286 10272 10259 10243 10227 10212 10199 10186 10173 10160 10146 10131 10115 10100 10086 10071 10057 10040 10025 10011 9997 9985 9976 9967 9957 9948 9941 9935 9929 9922 9915 9909 9904 9898 9891 9885 9879 9873 9867 9862 9857 9851 9843 9834 9827 9822 9820 9818 9812 9803 9796 9794 9790 9783
10519 10514 10509 10505 10500 10496 10491 10485 10479 10473 10466 10460 10453 10447 10440 10433 10426 10418 10409 10401 10392 10384 10375 10365 10356 10346 10335 10325 10314 10303 10291 10277 10265 10251 10235 10219 10206 10193 10181 10167 10154 10140 10125 10110 10096 10083 10070 10056 10041 10025 10010 9996 9982 9970 9960 9951 9941 9932 9925 9919 9913 9906 9900 9895 9889 9884 9878 9873 9867 9860 9855 9850 9844 9838 9831 9822 9814 9807 9802 9800 9796 9789 9783 9781 9778
10513 10508 10503 10499 10494 10490 10485 10479 10473 10466 10460 10453 10447 10441 10434 10427 10419 10411 10402 10394 10385 10376 10368 10359 10349 10339 10328 10318 10307 10295 10283 10270 10258 10244 10228 10213 10201 10189 10176 10163 10148 10134 10119 10104 10091 10079 10066 10053 10040 10026 10011 9997 9983 9968 9956 9946 9937 9927 9917 9911 9905 9898 9891 9885 9880 9875 9869 9865 9861 9854 9847 9842 9837 9831 9825 9819 9813 9805 9796 9788 9783 9778 9774 9770 9768
10507 10502 10497 10493 10488 10484 10479 10473 10466 10460 10453 10447 10441 10434 10428 10420 10412 10404 10395 10387 10379 10370 10361 10352 10342 10332 10321 10311 10299 10288 10275 10263 10250 10236 10220 10207 10195 10183 10170 10157 10144 10129 10115 10100 10086 10073 10061 10048 10036 10024 10012 9998 9985 9970 9956 9944 9933 9924 9914 9905 9898 9892 9885 9878 9872 9867 9861 9855 9852 9848 9841 9835 9831 9826 9820 9813 9807 9801 9794 9785 9777 9772 9768 9765 9761
10501 10496 10491 10487 10482 10478 10472 10467 10460 10454 10447 10441 10434 10428 10421 10414 10406 10397 10389 10381 10372 10363 10354 10345 10335 10324 10314 10304 10292 10281 10268 10256 10243 10227 10213 10200 10187 10174 10161 10148 10135 10123 10110 10096 10082 10068 10055 10042 10030 10019 10008 9997 9985 9972 9959 9946 9933 9922 9912 9901 9893 9887 9881 9874 9865 9859 9854 9848 9842 9839 9835 9829 9823 9819 9815 9809 9802 9794 9788 9784 9778 9769 9764 9761 9758
10494 10489 10485 10481 10476 10471 10466 10460 10454 10447 10441 10434 10428 10422 10415 10407 10399 10391 10383 10374 10365 10357 10348 10338 10328 10318 10307 10297 10285 10273 10261 10249 10234 10219 10205 10193 10179 10166 10152 10139 10126 10114 10101 10089 10077 10063 10049 10035 10023 10011 10000 9991 9981 9970 9960 9948 9935 9924 9913 9901 9891 9882 9876 9870 9863 9855 9849 9843 9836 9831 9828 9823 9818 9814 9810 9806 9801 9795 9788 9781 9774 9764 9755 9751 9749
10488 10483 10479 10475 10470 10465 10460 10454 10448 10441 10435 10428 10422 10415 10408 10400 10392 10384 10376 10368 10359 10350 10341 10331 10321 10311 10300 10289 10277 10265 10253 10240 10225 10210 10197 10184 10171 10158 10145 10131 10118 10104 10091 10079 10068 10056 10043 10029 10015 10002 9991 9981 9973 9964 9956 9946 9935 9925 9915 9904 9893 9882 9873 9867 9860 9853 9846 9840 9833 9826 9821 9818 9813 9809 9806 9802 9798 9794 9788 9780 9772 9765 9755 9746 9740
10482 10477 10473 10469 10464 10459 10454 10448 10442 10435 10429 10422 10415 10409 10402 10394 10386 10378 10370 10361 10352 10343 10334 10324 10314 10304 10293 10282 10270 10258 10245 10232 10216 10203 10190 10177 10164 10152 10138 10124 10111 10097 10084 10071 10059 10047 10035 10022 10009 9995 9983 9972 9963 9955 9948 9941 9932 9922 9913 9903 9893 9884 9874 9866 9859 9852 9844 9838 9832 9825 9818 9812 9808 9803 9799 9795 9792 9788 9784 9780 9774 9767 9760 9752 9744
10476 10472 10468 10463 10458 10453 10448 10442 10436 10429 10422 10416 10409 10402 10395 10387 10379 10371 10363 10354 10345 10336 10327 10317 10307 10296 10286 10274 10263 10251 10238 10224 10210 10197 10185 10172 10160 10147 10133 10119 10105 10092 10079 10066 10053 10040 10028 10015 10003 9990 9978 9966 9956 9947 9939 9932 9926 9918 9910 9901 9891 9882 9873 9865 9858 9851 9843 9837 9830 9824 9815 9808 9803 9798 9794 9789 9785 9781 9777 9774 9772 9767 9761 9754 9747
10470 10466 10462 10457 10452 10447 10442 10436 10429 10423 10416 10409 10403 10396 10389 10381 10373 10365 10357 10348 10339 10330 10320 10310 10300 10289 10279 10267 10256 10244 10231 10217 10203 10191 10180 10168 10156 10143 10130 10116 10102 10089 10076 10063 10050 10037 10024 10011 9997 9985 9973 9961 9951 9941 9931 9923 9916 9909 9903 9897 9889 9879 9870 9861 9854 9847 9841 9834 9828 9822 9815 9806 9799 9793 9789 9785 9780 9776 9771 9767 9765 9762 9759 9753 9746
10464 10460 10456 10451 10446 10441 10436 10430 10423 10416 10409 10403 10396 10389 10382 10375 10367 10359 10350 10341 10333 10323 10313 10303 10293 10282 10272 10261 10249 10238 10225 10211 10198 10187 10175 10163 10151 10139 10127 10114 10101 10087 10075 10062 10048 10035 10021 10008 9995 9982 9970 9959 9948 9938 9928 9918 9909 9901 9895 9890 9884 9877 9868 9859 9850 9843 9836 9830 9825 9819 9812 9805 9798 9790 9785 9780 9776 9773 9769 9764 9759 9756 9753 9749 9743
10458 10454 10450 10445 10441 10435 10429 10423 10417 10410 10403 10397 10390 10383 10376 10368 10361 10352 10344 10335 10326 10317 10307 10297 10287 10276 10265 10254 10243 10231 10218 10205 10193 10182 10171 10160 10148 10135 10123 10110 10098 10086 10074 10061 10048 10034 10019 10005 9993 9980 9968 9957 9947 9936 9927 9917 9906 9897 9889 9882 9877 9872 9865 9858 9849 9841 9834 9828 9823 9817 9812 9805 9799 9792 9785 9779 9773 9768 9765 9762 9757 9751 9746 9741 9736
10452 10448 10444 10439 10434 10429 10423 10417 10410 10404 10397 10391 10384 10377 10370 10362 10354 10346 10338 10329 10320 10310 10300 10290 10280 10270 10259 10248 10237 10225 10211 10200 10189 10178 10167 10155 10144 10131 10119 10105 10092 10081 10070 10058 10045 10032 10018 10003 9990 9979 9967 9956 9946 9935 9926 9917 9906 9895 9886 9877 9870 9863 9857 9852 9846 9839 9833 9826 9821 9815 9810 9805 9800 9793 9786 9779 9771 9764 9758 9755 9751 9746 9739 9733 9727
10446 10442 10438 10433 10428 10423 10417 10410 10404 10398 10392 10385 10378 10371 10364 10356 10348 10340 10332 10323 10313 10304 10294 10284 10274 10263 10253 10242 10230 10218 10206 10195 10184 10173 10162 10150 10137 10125 10113 10099 10085 10072 10062 10052 10041 10029 10016 10003 9990 9978 9966 9955 9945 9935 9925 9916 9906 9895 9884 9875 9866 9858 9849 9842 9837 9832 9826 9821 9816 9812 9807 9802 9796 9791 9784 9778 9771 9763 9755 9749 9745 9741 9737 9730 9724
10440 10436 10432 10427 10422 10417 10410 10404 10398 10392 10385 10378 10371 10365 10358 10350 10342 10334 10325 10316 10307 10297 10287 10278 10267 10257 10246 10235 10223 10211 10200 10190 10179 10168 10156 10144 10132 10118 10105 10092 10079 10065 10053 10043 10034 10023 10013 10001 9988 9977 9966 9955 9944 9934 9925 9916 9907 9896 9885 9874 9865 9857 9849 9840 9831 9824 9818 9812 9808 9805 9801 9797 9792 9786 9781 9775 9769 9763 9755 9747 9741 9736 9733 9730 9724
10434 10430 10426 10421 10416 10410 10404 10398 10392 10386 10379 10372 10365 10358 10351 10344 10336 10328 10319 10310 10300 10291 10281 10271 10261 10251 10240 10228 10217 10205 10195 10185 10174 10163 10151 10139 10126 10112 10098 10085 10072 10059 10047 10035 10024 10014 10005 9995 9984 9974 9964 9953 9943 9933 9923 9914 9905 9896 9886 9875 9866 9857 9849 9842 9834 9826 9819 9812 9805 9799 9795 9791 9787 9782 9778 9773 9768 9762 9755 9747 9740 9733 9728 9726 9723
10428 10424 10419 10414 10409 10404 10398 10392 10386 10379 10373 10366 10359 10352 10345 10338 10330 10321 10313 10304 10294 10285 10275 10265 10255 10244 10233 10221 10210 10199 10189 10179 10168 10157 10145 10133 10119 10106 10093 10080 10067 10054 10043 10032 10021 10009 9998 9988 9979 9969 9960 9951 9941 9930 9920 9911 9902 9893 9884 9875 9866 9857 9848 9841 9835 9828 9821 9814 9807 9799 9792 9787 9783 9779 9774 9769 9764 9759 9753 9746 9739 9732 9725 9719 9717
10422 10418 10413 10408 10403 10398 10392 10386 10379 10373 10367 10360 10353 10346 10339 10332 10324 10315 10306 10297 10288 10278 10269 10259 10248 10237 10226 10215 10204 10194 10184 10174 10163 10151 10139 10126 10113 10100 10088 10076 10063 10051 10040 10029 10019 10008 9996 9986 9976 9966 9957 9948 9938 9928 9917 9908 9899 9890 9881 9873 9865 9857 9849 9840 9833 9826 9820 9813 9806 9798 9790 9783 9778 9774 9769 9764 9759 9754 9750 9745 9739 9732 9725 9718 9712
10416 10411 10406 10401 10397 10391 10385 10379 10373 10367 10360 10354 10346 10340 10333 10325 10317 10309 10300 10291 10282 10272 10263 10252 10242 10231 10220 10209 10199 10189 10179 10169 10159 10147 10134 10121 10107 10094 10082 10071 10060 10050 10038 10026 10016 10006 9996 9986 9976 9965 9955 9945 9936 9926 9916 9906 9896 9887 9878 9870 9862 9854 9847 9839 9831 9824 9817 9811 9804 9797 9790 9782 9775 9769 9764 9759 9755 9750 9746 9742 9738 9732 9725 9719 9713
10409 10404 10400 10395 10390 10385 10379 10373 10367 10360 10354 10347 10340 10333 10326 10319 10311 10303 10294 10285 10276 10266 10256 10246 10235 10224 10213 10203 10194 10184 10174 10163 10153 10141 10129 10115 10102 10089 10078 10067 10057 10048 10038 10026 10015 10005 9995 9985 9975 9964 9953 9943 9934 9925 9915 9904 9894 9885 9877 9868 9860 9852 9844 9837 9829 9821 9814 9808 9801 9795 9789 9782 9775 9767 9761 9756 9752 9748 9744 9740 9737 9732 9726 9719 9712
10402 10398 10393 10389 10384 10379 10372 10366 10360 10354 10347 10340 10334 10327 10319 10312 10304 10296 10288 10279 10270 10260 10250 10239 10228 10218 10208 10198 10188 10179 10169 10158 10147 10135 10123 10111 10098 10085 10073 10062 10053 10044 10035 10025 10014 10004 9994 9983 9972 9961 9951 9940 9930 9921 9912 9903 9893 9884 9875 9867 9858 9850 9842 9835 9827 9819 9812 9805 9799 9792 9786 9781 9775 9768 9761 9755 9750 9745 9741 9737 9733 9730 9725 9719 9712
10395 10391 10387 10383 10378 10372 10366 10360 10354 10347 10341 10334 10327 10320 10313 10306 10298 10290 10282 10273 10263 10254 10244 10233 10222 10212 10202 10192 10183 10173 10164 10153 10142 10130 10119 10107 10094 10081 10069 10058 10049 10041 10032 10022 10011 10000 9990 9979 9967 9956 9946 9936 9926 9916 9907 9900 9891 9882 9873 9865 9856 9848 9840 9833 9825 9817 9810 9803 9796 9790 9783 9777 9772 9767 9761 9755 9749 9743 9737 9732 9727 9724 9720 9716 9711
10389 10385 10380 10376 10371 10365 10359 10353 10347 10341 10334 10328 10321 10314 10307 10300 10292 10284 10275 10267 10257 10248 10238 10227 10217 10207 10197 10187 10178 10168 10158 10148 10137 10125 10114 10102 10091 10078 10066 10054 10044 10035 10026 10017 10005 9994 9984 9973 9961 9950 9940 9930 9922 9912 9903 9895 9887 9878 9870 9862 9854 9846 9838 9830 9823 9816 9808 9801 9794 9788 9782 9775 9769 9764 9759 9753 9747 9741 9735 9729 9723 9718 9714 9710 9707
10382 10378 10374 10369 10364 10359 10353 10347 10341 10335 10328 10321 10314 10308 10301 10293 10286 10278 10269 10260 10251 10242 10232 10221 10211 10201 10192 10182 10173 10162 10152 10141 10130 10119 10108 10097 10087 10075 10062 10049 10038 10028 10019 10009 9998 9987 9976 9965 9954 9944 9934 9924 9916 9907 9899 9891 9883 9876 9867 9858 9850 9842 9834 9827 9820 9814 9807 9799 9792 9785 9779 9772 9766 9760 9755 9750 9744 9739 9734 9728 9723 9717 9711 9707 9702
10376 10372 10367 10363 10358 10352 10346 10341 10335 10328 10322 10315 10308 10302 10295 10287 10279 10272 10263 10254 10245 10236 10225 10215 10205 10195 10186 10177 10168 10158 10148 10138 10126 10115 10104 10093 10081 10069 10056 10044 10033 10023 10013 10003 9991 9979 9968 9958 9948 9938 9928 9918 9908 9899 9891 9883 9877 9870 9863 9854 9845 9837 9830 9822 9815 9808 9802 9795 9788 9781 9775 9768 9762 9756 9751 9746 9742 9737 9732 9727 9722 9716 9711 9706 9701
10369 10365 10361 10356 10351 10346 10340 10334 10328 10322 10315 10309 10302 10295 10288 10281 10273 10265 10256 10248 10239 10229 10219 10208 10199 10190 10180 10171 10161 10153 10144 10134 10123 10111 10099 10088 10076 10065 10053 10042 10031 10020 10010 10001 9990 9977 9965 9955 9945 9935 9925 9916 9906 9897 9888 9879 9871 9864 9858 9851 9843 9834 9826 9819 9812 9804 9798 9792 9785 9779 9773 9766 9760 9754 9748 9743 9738 9734 9730 9725 9720 9715 9710 9705 9700
10362 10359 10354 10350 10344 10339 10333 10328 10321 10315 10309 10302 10296 10289 10282 10275 10267 10259 10250 10242 10233 10223 10212 10202 10193 10184 10175 10166 10155 10145 10135 10125 10115 10103 10092 10080 10070 10060 10050 10040 10029 10018 10007 9997 9987 9976 9964 9953 9943 9933 9924 9916 9907 9899 9890 9881 9872 9863 9855 9848 9841 9833 9825 9817 9810 9803 9796 9789 9783 9777 9771 9766 9760 9753 9747 9741 9735 9730 9727 9723 9719 9715 9709 9704 9698
10356 10352 10348 10343 10338 10332 10327 10321 10315 10309 10303 10296 10290 10283 10276 10269 10261 10252 10244 10236 10227 10216 10206 10196 10187 10179 10170 10162 10152 10141 10130 10118 10107 10095 10084 10073 10063 10054 10045 10036 10025 10014 10003 9992 9982 9973 9962 9950 9940 9930 9921 9913 9905 9897 9889 9881 9872 9863 9854 9845 9838 9831 9824 9816 9809 9802 9795 9788 9781 9775 9769 9764 9758 9753 9747 9741 9734 9729 9724 9720 9717 9713 9709 9704 9698
10350 10345 10341 10336 10331 10326 10320 10314 10308 10302 10296 10290 10284 10277 10270 10263 10254 10246 10238 10230 10220 10210 10200 10190 10181 10173 10164 10156 10147 10138 10127 10115 10102 10090 10079 10068 10057 10047 10039 10030 10020 10009 9998 9988 9979 9969 9958 9948 9938 9929 9919 9911 9902 9894 9886 9878 9869 9861 9853 9844 9836 9829 9822 9815 9808 9801 9794 9788 9781 9774 9768 9762 9756 9751 9746 9740 9734 9728 9722 9717 9713 9710 9707 9703 9698
10343 10339 10334 10330 10325 10320 10314 10308 10302 10296 10290 10284 10278 10271 10264 10256 10248 10240 10232 10223 10213 10203 10193 10184 10176 10167 10159 10150 10141 10132 10121 10110 10098 10087 10075 10064 10052 10041 10031 10022 10014 10005 9994 9983 9974 9965 9955 9945 9935 9926 9917 9908 9899 9890 9882 9873 9865 9857 9849 9841 9833 9826 9819 9813 9806 9800 9793 9786 9780 9774 9768 9761 9755 9749 9744 9739 9734 9728 9722 9717 9711 9707 9704 9701 9697
10336 10332 10328 10323 10318 10313 10307 10301 10295 10290 10284 10278 10272 10265 10257 10249 10242 10234 10226 10216 10206 10196 10187 10178 10170 10161 10153 10145 10136 10126 10116 10105 10095 10083 10071 10059 10047 10036 10026 10016 10007 9999 9990 9979 9970 9962 9953 9943 9933 9922 9913 9904 9895 9886 9877 9869 9861 9853 9844 9837 9829 9822 9815 9809 9803 9797 9790 9783 9777 9771 9766 9760 9754 9748 9742 9737 9732 9727 9722 9716 9711 9706 9701 9698 9695
10329 10325 10321 10316 10311 10306 10300 10295 10289 10283 10278 10272 10266 10258 10251 10243 10235 10228 10219 10209 10199 10190 10180 10171 10163 10155 10147 10139 10131 10121 10111 10100 10090 10078 10067 10055 10044 10033 10023 10012 10002 9993 9984 9975 9966 9958 9950 9941 9930 9919 9910 9900 9891 9882 9874 9865 9857 9849 9842 9834 9827 9819 9813 9806 9799 9793 9787 9781 9774 9768 9763 9757 9752 9746 9741 9736 9731 9726 9721 9715 9710 9705 9700 9696 9693
10323 10319 10314 10310 10304 10299 10294 10288 10283 10277 10272 10266 10258 10251 10244 10237 10229 10221 10211 10202 10193 10184 10174 10165 10156 10148 10139 10131 10122 10114 10104 10093 10083 10073 10062 10052 10042 10032 10022 10012 10001 9991 9981 9971 9961 9952 9944 9935 9925 9915 9905 9896 9887 9878 9870 9861 9853 9845 9838 9831 9825 9818 9811 9804 9797 9791 9784 9778 9772 9765 9760 9755 9749 9744 9738 9733 9729 9724 9719 9714 9709 9704 9699 9695 9691
10316 10312 10307 10302 10297 10292 10287 10282 10276 10271 10265 10259 10252 10245 10238 10230 10222 10214 10204 10195 10186 10177 10169 10160 10151 10142 10133 10124 10114 10105 10096 10086 10076 10067 10058 10049 10040 10031 10022 10013 10002 9991 9979 9967 9956 9946 9937 9928 9920 9910 9901 9892 9883 9874 9866 9857 9849 9841 9834 9827 9821 9815 9808 9801 9795 9789 9782 9776 9769 9763 9757 9752 9747 9742 9737 9731 9726 9722 9717 9712 9707 9703 9698 9694 9690
10309 10305 10300 10295 10290 10285 10280 10275 10270 10264 10258 10252 10245 10238 10231 10223 10215 10206 10197 10188 10179 10171 10163 10154 10145 10137 10128 10119 10109 10100 10090 10080 10071 10061 10053 10045 10037 10028 10018 10008 9998 9987 9975 9963 9953 9943 9933 9924 9915 9906 9897 9888 9880 9871 9862 9854 9846 9838 9831 9823 9816 9810 9804 9797 9791 9785 9779 9773 9767 9761 9755 9750 9744 9740 9735 9730 9724 9719 9715 9710 9705 9701 9696 9692 9688
10302 10297 10293 10288 10283 10279 10274 10268 10263 10258 10252 10246 10239 10231 10224 10217 10208 10199 10190 10181 10173 10165 10157 10149 10140 10131 10121 10112 10103 10093 10083 10073 10063 10053 10044 10036 10028 10020 10011 10001 9990 9980 9969 9958 9948 9939 9930 9920 9911 9902 9894 9885 9876 9867 9859 9851 9842 9835 9828 9821 9814 9807 9801 9794 9788 9781 9776 9770 9764 9758 9753 9747 9742 9737 9732 9727 9722 9717 9713 9708 9704 9699 9694 9690 9686
10295 10290 10286 10282 10276 10271 10267 10262 10257 10251 10246 10239 10232 10225 10217 10209 10200 10192 10183 10175 10167 10159 10151 10143 10134 10125 10115 10105 10095 10085 10074 10064 10054 10045 10036 10027 10018 10010 10002 9993 9984 9974 9964 9954 9944 9935 9925 9917 9908 9899 9890 9881 9873 9864 9856 9847 9839 9831 9824 9817 9810 9804 9797 9791 9785 9779 9773 9767 9761 9756 9750 9745 9739 9734 9729 9724 9720 9715 9710 9706 9702 9698 9693 9688 9684
10288 10284 10279 10274 10270 10265 10260 10255 10250 10245 10239 10232 10225 10218 10210 10202 10193 10185 10176 10168 10160 10153 10146 10137 10128 10119 10109 10099 10089 10078 10068 10058 10048 10039 10031 10022 10013 10004 9996 9988 9979 9970 9961 9951 9941 9931 9921 9912 9904 9896 9887 9878 9869 9861 9852 9844 9836 9828 9820 9813 9806 9800 9793 9788 9782 9776 9770 9765 9759 9753 9748 9742 9736 9731 9725 9721 9716 9712 9708 9703 9700 9696 9692 9687 9683
10281 10277 10272 10267 10263 10259 10254 10249 10244 10239 10232 10225 10218 10211 10203 10195 10187 10178 10170 10162 10154 10147 10139 10131 10122 10113 10103 10093 10083 10073 10063 10054 10045 10036 10027 10018 10010 10001 9992 9984 9975 9967 9958 9948 9938 9928 9918 9908 9900 9892 9883 9874 9866 9857 9849 9841 9833 9825 9817 9810 9803 9796 9790 9784 9778 9772 9766 9761 9756 9751 9745 9739 9733 9728 9722 9717 9713 9708 9704 9700 9697 9693 9689 9685 9681
10274 10270 10265 10261 10257 10253 10248 10243 10238 10232 10225 10218 10211 10204 10196 10188 10180 10172 10164 10156 10148 10140 10132 10124 10115 10107 10098 10087 10077 10068 10060 10051 10043 10034 10025 10016 10007 9998 9989 9980 9971 9962 9953 9944 9935 9925 9915 9905 9895 9887 9879 9871 9862 9854 9846 9838 9831 9823 9815 9807 9800 9793 9787 9781 9775 9769 9763 9757 9752 9747 9742 9736 9730 9725 9719 9714 9709 9705 9700 9697 9693 9690 9687 9683 9679
10267 10263 10259 10255 10251 10247 10242 10236 10231 10225 10218 10211 10204 10197 10189 10181 10173 10165 10158 10150 10142 10134 10125 10116 10107 10099 10090 10081 10072 10064 10056 10049 10040 10032 10022 10012 10003 9994 9985 9975 9965 9956 9947 9938 9929 9920 9911 9901 9892 9882 9874 9866 9858 9849 9841 9834 9827 9820 9812 9805 9797 9790 9784 9778 9772 9766 9760 9754 9748 9743 9738 9732 9727 9721 9715 9710 9705 9701 9696 9692 9689 9687 9684 9681 9677
10261 10257 10253 10249 10245 10241 10235 10230 10225 10218 10212 10205 10198 10190 10183 10175 10167 10159 10152 10144 10136 10127 10118 10108 10099 10090 10082 10075 10067 10060 10052 10044 10036 10027 10018 10008 9998 9989 9979 9970 9960 9951 9943 9933 9924 9915 9906 9897 9888 9879 9870 9861 9853 9844 9837 9829 9822 9815 9808 9801 9794 9787 9781 9774 9769 9763 9757 9751 9745 9739 9734 9729 9723 9717 9711 9706 9701 9697 9692 9688 9685 9682 9680 9677 9674
10254 10250 10247 10243 10239 10234 10229 10224 10218 10212 10205 10198 10191 10184 10176 10168 10161 10153 10145 10137 10129 10120 10111 10101 10093 10084 10076 10069 10062 10054 10047 10039 10030 10021 10012 10003 9993 9984 9974 9964 9955 9946 9937 9929 9920 9910 9901 9893 9884 9875 9866 9857 9848 9840 9832 9825 9817 9810 9803 9796 9789 9783 9776 9770 9765 9759 9754 9748 9742 9736 9730 9725 9719 9713 9707 9702 9697 9693 9689 9685 9681 9678 9676 9673 9671
10247 10244 10241 10237 10232 10228 10223 10217 10211 10205 10198 10191 10184 10177 10170 10162 10155 10147 10139 10131 10122 10114 10105 10096 10088 10080 10072 10065 10057 10050 10042 10033 10024 10016 10007 9997 9988 9979 9969 9960 9950 9941 9932 9923 9915 9906 9897 9888 9880 9871 9862 9853 9844 9836 9828 9820 9813 9806 9799 9792 9785 9778 9772 9766 9760 9755 9749 9744 9738 9733 9727 9721 9715 9709 9703 9698 9694 9689 9685 9681 9678 9675 9672 9670 9667
10241 10237 10234 10230 10226 10221 10216 10210 10204 10198 10192 10185 10178 10171 10163 10156 10149 10141 10133 10125 10117 10109 10100 10092 10085 10076 10069 10061 10054 10045 10037 10028 10019 10011 10002 9993 9983 9974 9964 9955 9946 9937 9927 9918 9909 9901 9892 9884 9875 9867 9858 9849 9841 9832 9824 9817 9809 9802 9794 9788 9781 9774 9768 9762 9757 9751 9745 9740 9734 9729 9723 9718 9712 9706 9700 9695 9690 9686 9682 9678 9675 9672 9669 9666 9663
10235 10231 10228 10224 10219 10215 10209 10204 10198 10192 10185 10178 10171 10164 10157 10150 10143 10135 10128 10120 10113 10104 10096 10088 10081 10073 10065 10057 10049 10041 10032 10023 10015 10006 9998 9988 9978 9969 9960 9951 9942 9933 9923 9914 9905 9896 9887 9879 9871 9862 9854 9845 9837 9829 9821 9814 9806 9798 9791 9783 9777 9770 9764 9758 9753 9748 9742 9737 9731 9725 9720 9715 9709 9704 9698 9692 9687 9683 9679 9675 9672 9668 9665 9662 9659
10229 10225 10222 10218 10213 10208 10202 10197 10192 10185 10178 10172 10165 10158 10151 10144 10137 10130 10123 10115 10108 10100 10092 10084 10076 10069 10061 10053 10045 10036 10028 10019 10011 10002 9993 9984 9974 9965 9956 9947 9937 9928 9919 9910 9901 9892 9883 9875 9866 9858 9849 9841 9833 9825 9817 9810 9803 9795 9787 9780 9773 9766 9760 9755 9749 9745 9740 9734 9728 9723 9717 9712 9706 9701 9695 9689 9684 9680 9676 9672 9669 9665 9662 9659 9655
10223 10220 10216 10212 10206 10201 10196 10191 10185 10178 10172 10165 10158 10152 10145 10139 10132 10125 10118 10110 10103 10095 10087 10080 10072 10065 10057 10048 10040 10032 10023 10015 10007 9998 9989 9980 9970 9961 9952 9943 9933 9924 9914 9905 9896 9887 9879 9870 9862 9854 9846 9837 9829 9821 9813 9806 9799 9791 9784 9777 9770 9763 9757 9751 9746 9741 9736 9730 9725 9720 9714 9708 9703 9698 9692 9686 9681 9677 9673 9669 9665 9662 9658 9655 9652